DW6283 Weather Reports


Display with metric or nautical units.
time (UTC)temp
F
wind
direction
speed
MPH
gust
MPH
rain 1hr
in
rain 24hr
in
rain mn
in
humidity
%
barometer
mb
20260506174505 75 79 0.0 2.0 0.00 0.00 0.00 48 1019.5
20260506173003 74 80 0.0 2.0 0.00 0.00 0.00 50 1019.5
20260506171559 73 86 0.0 3.0 0.00 0.00 0.00 54 1019.6
20260506170058 73 86 0.0 2.0 0.00 0.00 0.00 52 1019.6
20260506164536 72 86 0.0 1.0 0.00 0.00 0.00 54 1019.7
20260506163032 70 86 0.0 1.0 0.00 0.00 0.00 58 1019.7
20260506161511 69 86 0.0 1.0 0.00 0.00 0.00 57 1019.8
20260506160007 68 86 0.0 1.0 0.00 0.00 0.00 60 1019.9
20260506154548 66 86 0.0 0.0 0.00 0.00 0.00 62 1019.9
20260506153042 64 86 0.0 1.0 0.00 0.00 0.00 67 1019.9
20260506151520 62 86 0.0 0.0 0.00 0.00 0.00 72 1019.9
20260506150016 59 86 0.0 0.0 0.00 0.00 0.00 79 1019.9
20260506144606 56 86 0.0 0.0 0.00 0.00 0.00 82 1019.9
20260506143054 54 86 0.0 0.0 0.00 0.00 0.00 86 1019.8
20260506141536 51 86 0.0 0.0 0.00 0.00 0.00 92 1019.7
20260506140034 49 86 0.0 0.0 0.00 0.00 0.00 93 1019.6
20260506134514 48 86 0.0 0.0 0.00 0.00 0.00 93 1019.4
20260506133016 48 86 0.0 0.0 0.00 0.00 0.00 92 1019.2
20260506131556 48 86 0.0 0.0 0.00 0.00 0.00 92 1019.0
20260506130053 48 86 0.0 0.0 0.00 0.00 0.00 92 1018.9
20260506124540 48 86 0.0 0.0 0.00 0.00 0.00 92 1018.7
20260506123038 48 86 0.0 0.0 0.00 0.00 0.00 91 1018.6
20260506121536 48 86 0.0 0.0 0.00 0.00 0.00 91 1018.5
20260506120035 48 86 0.0 0.0 0.00 0.00 0.00 91 1018.5
20260506114533 49 86 0.0 0.0 0.00 0.00 0.00 91 1018.2
20260506113032 49 86 0.0 0.0 0.00 0.00 0.00 91 1018.2
20260506111529 50 86 0.0 0.0 0.00 0.00 0.00 91 1018.1
20260506110029 50 86 0.0 0.0 0.00 0.00 0.00 91 1018.2
20260506104510 50 86 0.0 1.0 0.00 0.00 0.00 91 1018.1
20260506103009 50 86 0.0 1.0 0.00 0.00 0.00 90 1018.1
20260506101608 50 86 0.0 0.0 0.00 0.00 0.00 90 1018.0
20260506100051 50 86 0.0 0.0 0.00 0.00 0.00 89 1018.0
20260506094602 50 86 0.0 0.0 0.00 0.00 0.00 88 1017.8
20260506093037 51 86 0.0 0.0 0.00 0.00 0.00 88 1017.7
20260506091531 51 86 0.0 0.0 0.00 0.00 0.00 87 1017.4
20260506090019 51 86 0.0 0.0 0.00 0.00 0.00 87 1017.7
20260506084525 52 86 0.0 0.0 0.00 0.00 0.00 86 1017.8
20260506083057 52 86 0.0 0.0 0.00 0.00 0.00 85 1017.8
20260506081549 53 86 0.0 0.0 0.00 0.00 0.00 85 1017.8
20260506073011 54 86 0.0 0.0 0.00 0.00 0.00 82 1017.6
20260506071508 54 86 0.0 0.0 0.00 0.00 0.00 82 1017.3
20260506061534 56 86 0.0 1.0 0.00 0.00 0.00 78 1016.8
20260506044537 58 86 0.0 2.0 0.00 0.00 0.00 72 1016.1
20260506043008 59 86 0.0 2.0 0.00 0.00 0.00 71 1015.9
20260506041506 59 86 0.0 1.0 0.00 0.00 0.00 69 1015.7
20260506040047 60 86 0.0 0.0 0.00 0.00 0.00 68 1015.5
20260506034552 60 86 0.0 2.0 0.00 0.00 0.00 66 1015.3
20260506033027 61 86 0.0 1.0 0.00 0.00 0.00 65 1015.0
20260506031529 62 90 0.0 2.0 0.00 0.00 0.00 63 1014.8
20260506030009 63 92 0.0 1.0 0.00 0.00 0.00 61 1014.7
20260506024516 64 93 0.0 3.0 0.00 0.00 0.00 59 1014.6
20260506023057 64 95 0.0 3.0 0.00 0.00 0.00 57 1014.4
20260506021557 65 92 0.0 2.0 0.00 0.00 0.00 56 1014.3
20260506020033 65 94 0.0 5.0 0.00 0.00 0.00 55 1014.2
20260506014533 66 134 0.0 6.0 0.00 0.00 0.00 53 1014.1
20260506013015 67 94 0.0 3.0 0.00 0.00 0.00 52 1014.1
20260506011534 67 94 0.0 2.0 0.00 0.00 0.00 51 1014.2
20260506010119 67 94 0.0 3.0 0.00 0.00 0.00 50 1014.2
20260506004556 68 94 0.0 5.0 0.00 0.00 0.00 49 1014.2
20260506003042 68 94 0.0 5.0 0.00 0.00 0.00 48 1014.2
20260506001542 69 94 0.0 2.0 0.00 0.00 0.00 48 1014.1
20260506000027 69 94 0.0 2.0 0.00 0.00 0.00 47 1014.1
20260505234530 69 94 0.0 3.0 0.00 0.00 0.00 48 1014.2
20260505233032 69 94 0.0 5.0 0.00 0.00 0.00 47 1014.2
20260505231536 69 94 0.0 2.0 0.00 0.00 0.00 48 1014.2
20260505230028 69 90 0.0 4.0 0.00 0.00 0.00 47 1014.2
20260505224525 71 103 1.0 4.0 0.00 0.00 0.00 44 1014.3
20260505223024 73 94 0.0 3.0 0.00 0.00 0.00 41 1014.4
20260505221524 74 77 0.0 3.0 0.00 0.00 0.00 40 1014.3
20260505220008 72 82 0.0 5.0 0.00 0.00 0.00 41 1014.3
20260505214511 74 90 1.0 7.0 0.00 0.00 0.00 40 1014.5
20260505213049 76 34 1.0 6.0 0.00 0.00 0.00 37 1014.6
20260505211547 76 96 0.0 7.0 0.00 0.00 0.00 36 1014.5
20260505210028 75 76 0.0 4.0 0.00 0.00 0.00 40 1014.5
20260505204527 74 74 0.0 5.0 0.00 0.00 0.00 41 1014.5
20260505203012 76 80 0.0 4.0 0.00 0.00 0.00 37 1014.6
20260505201507 75 63 0.0 4.0 0.00 0.00 0.00 40 1014.6
20260505200048 74 100 0.0 5.0 0.00 0.00 0.00 42 1014.7
20260505194556 74 81 0.0 3.0 0.00 0.00 0.00 44 1014.8
20260505193034 72 77 0.0 2.0 0.00 0.00 0.00 46 1014.9
20260505191523 70 92 0.0 4.0 0.00 0.00 0.00 49 1014.9
20260505190100 69 98 0.0 3.0 0.00 0.00 0.00 51 1015.0
20260505184558 68 78 0.0 4.0 0.00 0.00 0.00 54 1015.1
20260505183048 68 121 0.0 7.0 0.00 0.00 0.00 52 1015.3
20260505181537 67 30 0.0 4.0 0.00 0.00 0.00 54 1015.2
20260505180019 65 76 0.0 6.0 0.00 0.00 0.00 62 1015.1